This is the latest recevied weather packets stored in our database for station/object IR3AS. If no packets are shown the sender has not sent any weather packets the latest 10 day(s).
| Time | Temp. | Humidity | Pressure | Rain* | Wind** | Luminosity | Snow |
|---|---|---|---|---|---|---|---|
| 1777790757 | 13.89° C | 32% | 861.8 hPa | 0 mm | - | - | - |
| 1777790457 | 15° C | 31% | 861.6 hPa | 0 mm | - | - | - |
| 1777790158 | 15° C | 33% | 861.2 hPa | 0 mm | - | - | - |
| 1777789858 | 13.89° C | 34% | 861.4 hPa | 0 mm | - | - | - |
| 1777789558 | 12.78° C | 36% | 861.3 hPa | 0 mm | - | - | - |
| 1777789258 | 11.11° C | 36% | 861.1 hPa | 0 mm | - | - | - |
| 1777788958 | 11.11° C | 38% | 861 hPa | 0 mm | - | - | - |
| 1777788658 | 11.11° C | 36% | 861 hPa | 0 mm | - | - | - |
| 1777788358 | 11.11° C | 36% | 860.9 hPa | 0 mm | - | - | - |
| 1777788058 | 11.11° C | 36% | 861 hPa | 0 mm | - | - | - |
| 1777787758 | 10.56° C | 36% | 861 hPa | 0 mm | - | - | - |
| 1777787458 | 10° C | 36% | 860.9 hPa | 0 mm | - | - | - |
| 1777787158 | 9.44° C | 37% | 860.9 hPa | 0 mm | - | - | - |
| 1777786858 | 8.89° C | 37% | 860.8 hPa | 0 mm | - | - | - |
| 1777786558 | 7.78° C | 37% | 860.8 hPa | 0 mm | - | - | - |
| 1777786258 | 7.78° C | 37% | 860.7 hPa | 0 mm | - | - | - |
| 1777785958 | 7.78° C | 37% | 860.6 hPa | 0 mm | - | - | - |
| 1777785658 | 7.22° C | 37% | 860.5 hPa | 0 mm | - | - | - |
| 1777785358 | 7.22° C | 38% | 860.5 hPa | 0 mm | - | - | - |
| 1777785058 | 7.22° C | 38% | 860.2 hPa | 0 mm | - | - | - |
| 1777784758 | 6.67° C | 38% | 860.3 hPa | 0 mm | - | - | - |
| 1777784458 | 6.67° C | 38% | 860 hPa | 0 mm | - | - | - |
| 1777784158 | 6.67° C | 37% | 859.8 hPa | 0 mm | - | - | - |
| 1777783859 | 6.67° C | 36% | 859.9 hPa | 0 mm | - | - | - |
| 1777783558 | 6.67° C | 34% | 859.7 hPa | 0 mm | - | - | - |
* Rain latest hour (hover to see other rain measurements)
** Current wind speed in m/s (hover to see current wind gust speed)